Location: Hawks Ness
(60.2333°N, 1.1667°W)
Time: 14:37:05
(UTC+00:00)

Cosmos 1726 - Pass Details

Date: 02 February 2020
Orbit: 483 x 499 km, 82.5° (Epoch: 28 February)

Event Time Altitude Azimuth Distance (km) Brightness Sun altitude
Exits shadow 05:01:02 18° 5° (N) 1,274 4.3 -24.2°
Drops below altitude 10° 05:02:03 10° 9° (N) 1,682 5.0 -24.1°
Sets 05:04:11 0° 13° (NNE) 2,568 6.0 -23.8°
